Погода Резекне

Погода Резекне : погода сейчас, прогноз погоды и архив. Всё, что Вы хотите узнать о погоде Резекне!

Поиск расширенной информации на нашем сайте:

Другие новости

Новости СМИ2

Главная страница сайта

Новости сайта

03.07.2017

Напоминаем, что на нашем специализированном сайте Метеоцентр.Азия вы можете получить высокодетализированные автоматические прогнозы погоды по пунктам России, СНГ и мира в авиационном формате (включающие направление и скорость ветра, видимость, явления погоды, количество и форму облачности, нижнюю и верхнюю границу облачности).


Погода Резекне - сегодня

Время (UTC), дата Ветер
(°,м/с) 
Видим.   Явления Облачность Т
(°С)
Тd
(°С)
f(%) Тe
(°С)
Pmin
(гПа)
dP
(гПа)
Po
(мм)
O2
(г/м3)
Тmin Tmax R s Состояние
почвы
12 10.12.17 190 (Ю) 1-2  н/о    н/о 
-2 -3.6 89 -1  1001.5  -0.6  736  299           
15 10.12.17 210 (ЮЗ) 2-2  н/о    н/о 
-3.2 -3.9 95 -4  1001.8  0.3  737  301           
18 10.12.17 180 (Ю) 1-2  н/о    н/о 
-2 -2.8 94 -1  1001.7  -0.1  737  299           
21 10.12.17 110 (В) 1-2  н/о    н/о 
-1.6 -2.4 94 -1  1001.9  0.3  737  299           
00 11.12.17 110 (В) 1-2  н/о    н/о 
-1.9 -2.7 94 -1  1000.9  -1  736  299           
03 11.12.17 100 (В) 1-1  н/о    н/о 
-3.4 -3.8 97 -3  1001.1  0.1  736  301           
06 11.12.17 150 (ЮВ) 2-5  н/о    н/о 
-2.6 -3.7 92 -4  1001.4  0.3  736  300           
09 11.12.17 110 (В) 2-4  н/о    н/о 
-2.9 -4.2 91 -4  1001.7  0.3  737  300           
12 11.12.17 130 (ЮВ) 3-5  н/о    н/о 
-2 -4.1 85 -4  1001  -0.6  736  299           
15 11.12.17 140 (ЮВ) 3-6  н/о    н/о 
-2.2 -3.9 88 -4  1002.3  1.3  737  300           
18 11.12.17 150 (ЮВ) 3-6  н/о    н/о 
-1.6 -2.9 91 -4  1003.6  1.3  738  299           
21 11.12.17 130 (ЮВ) 3-5  н/о    н/о 
-1 -1.9 94 -3  1002.6  -1  737  298           
00 12.12.17 130 (ЮВ) 3-5  н/о    н/о 
-0.6 -0.9 98 -2  1003  0.3  738  298           
03 12.12.17 120 (ЮВ) 4-8  н/о    н/о 
+0 -0.5 96 -2  1001.4  -1.5  736  297           
06 12.12.17 130 (ЮВ) 5-10  н/о    н/о 
+0.4 -0.3 95 -3  1000  735  296           
12 12.12.17 160 (Ю) 5-9  н/о    н/о 
+1.3 +0.4 94 -1  996.2  -1.7  733  294           
15 12.12.17 190 (Ю) 5-8  н/о    н/о 
+2.4 +1.9 97 996.2  733  292           
18 12.12.17 210 (ЮЗ) 4-6  н/о    н/о 
+4.2 +2.9 91 +2  996.4  0.3  733  290           
21 12.12.17 200 (Ю) 5-8  н/о    н/о 
+4.6 +2.3 85 +2  997.3  0.9  734  290           
00 13.12.17 230 (ЮЗ) 9-14  н/о    н/о 
+4.5 -1.1 67 +1  998.4  1.1  734  291           
03 13.12.17 230 (ЮЗ) 9-16  н/о    н/о 
+3.3 -2 68 -1  999.6  735  293           
06 13.12.17 240 (ЮЗ) 8-11  н/о    н/о 
+1.7 +0.3 90 -2  1004.3  4.4  739  296           
09 13.12.17 260 (З) 4-7  н/о    н/о 
+0.9 -1.3 85 -1  1007.7  741  298           
12 13.12.17 240 (ЮЗ) 5-7  н/о    н/о 
+1 -2.4 78 -2  1008.9  742  298           
15 13.12.17 210 (ЮЗ) 4-7  н/о    н/о 
+0.8 -1.4 85 -2  1009.7  0.9  743  298           
Время (UTC), дата Ветер
(°,м/с) 
Видим.   Явления Облачность Т
(°С)
Тd
(°С)
f(%) Тe
(°С)
Pmin
(гПа)
dP
(гПа)
Po
(мм)
O2
(г/м3)
Тmin Tmax R s Состояние
почвы

Для получения пояснительной информации подведите курсор к названию столбца.

ПОГОДА Резекне - архив

Всё, что Вы хотите узнать о погоде Резекне - удобно и подробно!

Выберите нужную дату (начиная с 1 января 2015* года) и нажмите кнопку "Найти".
Будут отображены архивные сводки погоды по пункту Резекне, начиная с указанной даты.


Отображать данные в формате CSV (для использования в таблицах Excel)


Внимание! Наш архив погоды предназначен исключительно для личного некоммерческого использования в познавательных целях. Если Вам необходимы официальные справки о состоянии погоды (для производственных, юридических, коммерческих и т.п. целей), обращайтесь в органы Росгидромета.

*Примечание: данная дата относится к архиву по метеостанциям СССР (Россия, СНГ, Балтия).
Архив по метеостанциям Зарубежной Европы и Азии (кроме Китая) хранится 10 дней, по другим регионам земного шара (Китай, Африка, Америка, Австралия, Океания) - 1 день.

Резекне - район местоположения метеостанции


Название, широта, долгота, высота метеостанции:
Резекне 56.5°ш. 27.3°д. 157 м над ур. моря [Латвия]

Дополнительная информация

В oтличие oт бoльшинства пoгoдных сайтoв мы публикуем пoдрoбную метеoинфoрмацию в детальнoм прoфессиoнальнoм фoрмате.

Характеристики температуры и влажнoсти вoздуха измеряются на высoте 2 м в тени вдали oт зданий и деревьев.
Скoрoсть ветра измеряется на высoте 10 м (на урoвне рoста челoвека скoрoсть ветра ниже в 1.5-2 раза). Если метеoстанция нахoдится в гoрoде или в лесу, тo скoрoсть ветра занижена на 2-4 м/с пo сравнению с oткрытым местoм. Скoрoсть ветра над акватoриями крупных рек и oзёр, а также на вершинах хoлмoв на 2-5 м/с выше, чем в oбычных услoвиях.
Атмoсфернoе давление в разных тoчках местнoсти мoжет значительнo oтличаться oт давления на метеoстанции, в зависимoсти oт услoвий рельефа (при пoдъёме на 10 м давление пoнижается примернo на 1 мм рт.ст.).